Simultaneous Nadir Overpasses (SNOs) Predictions

Prediction of SNOs between GOES-16 and METOP-B Satellite Orbit:

Table of predicted SNOs for the next 14.0 days since TLE Epoch: 3/2/2024
Index Date Time (GOES-16) GOES-16 Lat,Lon METOP-B Lat,Lon Distance(km) Time Diff (sec)
1 03/03/2024 02:21:54 -0.05, -75.20 0.11, -74.55 74.07 80
2 03/04/2024 14:43:27 0.05, -75.22 0.89, -79.13 444.44 80
3 03/05/2024 14:20:09 0.04, -75.23 -0.23, -74.15 123.98 80
4 03/07/2024 02:41:50 -0.05, -75.21 -0.81, -78.76 403.29 80
5 03/08/2024 02:18:31 -0.05, -75.22 0.25, -73.76 165.51 80
6 03/09/2024 14:40:04 0.05, -75.25 0.75, -78.34 351.97 80
7 03/10/2024 14:16:45 0.05, -75.26 -0.38, -73.36 217.41 80
8 03/12/2024 02:38:27 -0.05, -75.26 -0.64, -77.97 308.30 80
9 03/13/2024 02:15:08 -0.05, -75.27 0.49, -72.98 261.38 80
10 03/14/2024 14:36:41 0.05, -75.32 0.57, -77.55 255.13 80
11 03/15/2024 14:13:22 0.04, -75.33 -0.57, -72.57 314.78 80
